Location: Baggettsville
(36.4767°N, 86.7303°W)
Time: 21:23:28
(UTC+00:00)

Envisat - Pass Details

Date: 22 September 2021
Orbit: 764 x 766 km, 98.2° (Epoch: 15 October)

Event Time Altitude Azimuth Distance (km) Brightness Sun altitude
Rises 10:51:14 0° 13° (NNE) 3,236 6.5 -9.6°
Reaches altitude 10° 10:53:33 10° 15° (NNE) 2,306 5.8 -9.2°
Maximum altitude 10:58:38 81° 102° (ESE) 777 3.2 -8.1°
Drops below altitude 10° 11:03:42 10° 190° (S) 2,291 5.3 -7.1°
Sets 11:05:59 0° 192° (SSW) 3,213 6.1 -6.7°
